ATLAS 5 CENTAUR R/B

基本信息
目录编号:
28473
目录名称:
ATLAS 5 CENTAUR R/B
国际标识:
2004-048B
轨道中心:
EARTH
物体状态:
在轨
发射日期:
2004-12-17 UTC
国别:
美国 (US)
轨道信息
数据来源: 国际轨道数据
星历时间: 2026-07-13T22:09:56+0800
半长轴: 26084.825km
偏心率: 0.5705333
轨道倾角: 18.998°
近地点辐角: 70.394°
升交点赤经: 323.437°
平近点角: 340.785°
近地点: 4824.426km
远地点: 34588.95km
周期: 698.782分钟
每日圈数: 2.060729
详细信息
发射场:
AFETR
轨道高度:
MEO
数据来源:
AOE Integration Group
参考系:
TEME
时间系统:
UTC
历元类型:
SGP4
2D轨道图
3D轨道图
轨道高度分析图
轨道倾角分析图
轨道综合分析图
查看轨道综合分析图